Location: Unspecified
(42.3650°N, 71.1030°W)
Time: 16:22:37
(UTC+00:00)

Transit 2A - Pass Details

Date: 04 July 2024
Orbit: 591 x 960 km, 66.7° (Epoch: 16 July)

Event Time Altitude Azimuth Distance (km) Brightness Sun altitude
Rises 03:45:13 0° 310° (NW) 3,620 10.4 -23.2°
Reaches altitude 10° 03:49:12 10° 286° (WNW) 2,692 9.2 -23.4°
Maximum altitude 03:52:04 14° 259° (W) 2,441 8.6 -23.5°
Enters shadow 03:54:31 11° 235° (SW) 2,613 8.5 -23.6°
